Location: Starlight Observatory
(38.4029°N, 85.8936°W)
Time: 19:34:08
(UTC-04:00)

Iridium 62 - Visible Passes

Search period start: 29 April 2016 00:00
Search period end: 09 May 2016 00:00
Orbit: 776 x 779 km, 86.4° (Epoch: 29 April)

Date Brightness Start Highest point End Pass type
(mag) Time Alt. Az. Time Alt. Az. Time Alt. Az.
29 Apr 7.7 01:32:44 10° N 01:35:06 27° N 01:35:06 27° N visible
30 Apr 7.6 00:59:17 10° N 01:01:45 28° NNE 01:01:45 28° NNE visible
30 Apr 8.4 02:41:47 10° NW 02:42:13 11° NW 02:42:13 11° NW visible
01 May 7.8 00:26:10 10° NNE 00:28:24 22° NE 00:28:24 22° NE visible
01 May 8.0 02:07:01 10° NNW 02:08:52 19° NW 02:08:52 19° NW visible
01 May 8.1 23:53:39 10° NE 23:55:03 14° NE 23:55:03 14° NE visible
02 May 7.6 01:32:58 10° NNW 01:35:31 28° NNW 01:35:31 28° NNW visible
03 May 7.3 00:59:19 10° N 01:02:11 34° N 01:02:11 34° N visible
04 May 7.3 00:25:58 10° N 00:28:50 30° NNE 00:28:50 30° NNE visible
04 May 8.1 02:07:43 10° NW 02:09:19 15° NW 02:09:19 15° NW visible
04 May 7.7 23:53:03 10° NNE 23:55:30 20° NE 23:55:30 20° NE visible
05 May 7.6 01:33:20 10° NNW 01:35:59 25° NW 01:35:59 25° NW visible
05 May 8.1 23:21:02 10° NE 23:22:11 12° ENE 23:22:11 12° ENE visible
06 May 7.1 00:59:27 10° N 01:02:39 37° NNW 01:02:39 37° NNW visible
07 May 6.9 00:25:55 10° N 00:29:20 40° NNE 00:29:20 40° NNE visible
07 May 8.3 02:08:57 10° NW 02:09:48 12° WNW 02:09:48 12° WNW visible
07 May 7.2 23:52:43 10° NNE 23:56:01 29° NE 23:56:01 29° NE visible
08 May 7.8 01:33:51 10° NNW 01:36:30 21° WNW 01:36:30 21° WNW visible
08 May 7.6 23:20:02 10° NNE 23:22:42 18° ENE 23:22:42 18° ENE visible
